Location: Kawakawa
(35.3830°S, 174.0670°E)
Time: 03:33:17
(UTC+13:00)

Altair - Pass Details

Date: 13 December 2019
Orbit: 1502 x 1682 km, 47.2° (Epoch: 28 January)

Event Time Altitude Azimuth Distance (km) Brightness Sun altitude
Rises 09:57:12 0° 297° (WNW) 4,735 9.7 45.1°
Reaches altitude 10° 10:00:14 10° 295° (WNW) 3,779 9.3 45.7°
Maximum altitude 10:09:54 73° 210° (SSW) 1,696 8.4 47.7°
Drops below altitude 10° 10:20:00 10° 125° (SE) 3,933 10.3 49.7°
Sets 10:23:14 0° 123° (ESE) 4,937 10.6 50.4°
